Location: Zagreb
(45.8000°N, 16.0000°E)
Time: 13:45:46
(UTC+02:00)

ISS - Pass Details

Date: 04 October 2021
Orbit: 417 x 423 km, 51.6° (Epoch: 16 October)

Event Time Altitude Azimuth Distance (km) Brightness Sun altitude
Rises 19:31:24 0° 296° (WNW) 2,365 1.5 -11.5°
Reaches altitude 10° 19:33:31 10° 292° (WNW) 1,499 0.4 -11.8°
Maximum altitude 19:36:49 56° 214° (SW) 502 -3.2 -12.4°
Enters shadow 19:39:22 16° 138° (SE) 1,197 -1.9 -12.9°
